Погода в Ставрополе

Погода в Ставрополе : погода сейчас, прогноз погоды и архив. Всё, что Вы хотите узнать о погоде в Ставрополе!

Поиск расширенной информации на нашем сайте:

Другие новости

Новости СМИ2

Главная страница сайта

Новости сайта

03.07.2017

Напоминаем, что на нашем специализированном сайте Метеоцентр.Азия вы можете получить высокодетализированные автоматические прогнозы погоды по пунктам России, СНГ и мира в авиационном формате (включающие направление и скорость ветра, видимость, явления погоды, количество и форму облачности, нижнюю и верхнюю границу облачности).


Погода в Ставрополе - сегодня

Время (UTC), дата Ветер
(°,м/с) 
Видим.   Явления Облачность Т
(°С)
Тd
(°С)
f(%) Тe
(°С)
Pmin
(гПа)
dP
(гПа)
Po
(мм)
O2
(г/м3)
Тmin Tmax R s Состояние
почвы
18 20.02.18 130 (ЮВ) 8-10{13}  20000 м    10/10 200 м 
[St]
+0.4 -0.5 94 -4  1029.1  0.3  730  294           
21 20.02.18 070 (В) 2000 м  дымка  10/10 100 м 
[St]
-2.5 -3 96 -5  1022.8  -0.4  725  295           
00 21.02.18 070 (В) 0500 м  слаб. снег{туман} [диам. изморози 1 мм]  ?/?  
-2.8 -3.2 97 -6  1022.8  0.1  725  295           
03 21.02.18 070 (В) 0500 м  туман{снег}  ?/?  
-3 -3.5 96 -6  1022.6  -0.2  725  296  -3    0.3  <0.5  равномерный
сухой снег
100% 
06 21.02.18 080 (В) 0200 м  переохл. туман{снег} [диам. изморози 2 мм]  ?/?  
-2.2 -2.7 96 -5  1022.7  0.2  725  295  -3.1         
09 21.02.18 090 (В) 4000 м  дымка{туман} [диам. сложн. отлож. 4 мм]  10/10 200 м 
[St]
-1.2 -1.7 96 -4  1021.8  -0.6  724  293           
12 21.02.18 090 (В) 4000 м  дымка{туман} [диам. сложн. отлож. 2 мм]  10/10 100 м 
[St]
-0.6 -1 97 -4  1020.8  -0.8  724  292           
15 21.02.18 110 (В) 0200 м  туман [диам. гололёда 0 мм]  ?/?  
-0.5 -0.9 97 -4  1020.8  724  292    -0.2       
18 21.02.18 100 (В) 0050 м  туман [диам. гололёда 1 мм]  ?/?  
-0.1 -0.5 97 -4  1020.7  0.1  724  292           
21 21.02.18 120 (ЮВ) 2000 м  дымка{туман} [диам. гололёда 2 мм]  10/10 100 м 
[St]
-0.1 -0.4 98 -4  1019.8  -0.7  723  291           
00 22.02.18 120 (ЮВ) 10 км  [диам. гололёда 2 мм]  10/10 200 м 
[St]
-0.1 -0.5 97 -3  1019.2  -0.6  723  291           
03 22.02.18 130 (ЮВ) 0500 м  туман  ?/?  
-0.1 -0.5 97 -4  1018.4  -0.8  722  291  -0.5         
06 22.02.18 130 (ЮВ) 8-10{10}  0200 м  туман  ?/?  
-0.1 -0.5 97 -4  1017.8  -0.6  722  291           
09 22.02.18 130 (ЮВ) 9-11{12}  10 км  слаб. ливневой дождь  10/8 200 м кучево-дожд., средняя 
[Cb cap|Ac und]
+1.3 +0.9 97 -3  1016.6  -0.8  721  289           
12 22.02.18 130 (ЮВ) 5{11}  20000 м  {ливн. осадки, дождь}  10/5 300 м кучево-дожд., средняя 
[Cb calv|Ac und]
+3.6 +1.3 85 +1  1016.4  0.3  721  287           
15 22.02.18 130 (ЮВ) 20000 м  слаб. ливневой дождь  10/6 300 м кучево-дожд., средняя 
[Cb cap|Ac und]
+1.4 +0.1 91 -2  1017.2  0.4  722  289    +4  0.0     
18 22.02.18 140 (ЮВ) 6{10}  4000 м  дымка{ливн. осадки}  10/10 100 м 
[St]
+0.7 +0.1 96 -3  1017.7  0.3  722  290           
21 22.02.18 130 (ЮВ) 4000 м  дымка  10/10 100 м 
[St]
+0.6 +0.1 96 -3  1017.1  -0.5  721  290           
00 23.02.18 130 (ЮВ) 2000 м  дымка  10/10 100 м 
[St]
+0.4 +0 97 -3  1016.6  -0.5  721  290           
06 23.02.18 130 (ЮВ) 4000 м  дымка  10/10 200 м 
[St]
+0.9 +0.3 96 -3  1015.8  -0.3  720  289  +0.1         
09 23.02.18 140 (ЮВ) 6{10}  10 км    10/5 200 м 
[St]
+2.2 +0.6 89 -1  1015.1  -0.4  720  288           
12 23.02.18 140 (ЮВ) 7{11}  20000 м    10/5 300 м средняя 
[St|Ac und]
+3.5 +0.5 81 1013.3  -1.5  719  286           
15 23.02.18 150 (ЮВ) 8-10  10 км    10/6 200 м средняя 
[St|Ac und]
+1.3 +0.2 92 -3  1013  -0.7  719  288    +4.3       
18 23.02.18 150 (ЮВ) 4{10}  20000 м    10/10 100 м 
[St]
+1.2 +0.4 94 -1  1013.7  0.6  719  288           
21 23.02.18 140 (ЮВ) 2000 м  дымка{ливн. осадки}  10/8 600 м кучево-дожд., средняя 
[Cb cap|Ac und]
+1.1 +0.6 96 1013.1  -0.5  719  288           
Время (UTC), дата Ветер
(°,м/с) 
Видим.   Явления Облачность Т
(°С)
Тd
(°С)
f(%) Тe
(°С)
Pmin
(гПа)
dP
(гПа)
Po
(мм)
O2
(г/м3)
Тmin Tmax R s Состояние
почвы

Для получения пояснительной информации подведите курсор к названию столбца.

ПОГОДА в Ставрополе - архив

Всё, что Вы хотите узнать о погоде в Ставрополе - удобно и подробно!

Выберите нужную дату (начиная с 1 января 2015* года) и нажмите кнопку "Найти".
Будут отображены архивные сводки погоды по пункту Ставрополь, начиная с указанной даты.


Отображать данные в формате CSV (для использования в таблицах Excel)


Внимание! Наш архив погоды предназначен исключительно для личного некоммерческого использования в познавательных целях. Если Вам необходимы официальные справки о состоянии погоды (для производственных, юридических, коммерческих и т.п. целей), обращайтесь в органы Росгидромета.

*Примечание: данная дата относится к архиву по метеостанциям СССР (Россия, СНГ, Балтия).
Архив по метеостанциям Зарубежной Европы и Азии (кроме Китая) хранится 10 дней, по другим регионам земного шара (Китай, Африка, Америка, Австралия, Океания) - 1 день.

Ставрополь - район местоположения метеостанции


Название, широта, долгота, высота метеостанции:
Ставрополь 45.1°ш. 42.1°д. 452 м над ур. моря [Российская Федерация]

Дополнительная информация

В oтличие oт бoльшинства пoгoдных сайтoв мы публикуем пoдрoбную метеoинфoрмацию в детальнoм прoфессиoнальнoм фoрмате.

Характеристики температуры и влажнoсти вoздуха измеряются на высoте 2 м в тени вдали oт зданий и деревьев.
Скoрoсть ветра измеряется на высoте 10 м (на урoвне рoста челoвека скoрoсть ветра ниже в 1.5-2 раза). Если метеoстанция нахoдится в гoрoде или в лесу, тo скoрoсть ветра занижена на 2-4 м/с пo сравнению с oткрытым местoм. Скoрoсть ветра над акватoриями крупных рек и oзёр, а также на вершинах хoлмoв на 2-5 м/с выше, чем в oбычных услoвиях.
Атмoсфернoе давление в разных тoчках местнoсти мoжет значительнo oтличаться oт давления на метеoстанции, в зависимoсти oт услoвий рельефа (при пoдъёме на 10 м давление пoнижается примернo на 1 мм рт.ст.).